Flag for Switzerland Weather past 2 weeks in Solothurn, Solothurn, Switzerland

Now
49 °F

Cool.


Feels Like: 49 °F
Forecast: 43 / 74 °F
Wind: 2 mph from East

Location: Grenchen

Current Time: Sep 16, 2014 at 7:44:57 AM

Latest Report: Sep 16, 2014 at 7:00 AM


Visibility: N/A

Pressure: 30.04 "Hg

Humidity: 98%

Dew point: 49 °F

Location of SolothurnLocation

Historic Weather in Solothurn — Graph

°F

Solothurn temperature yesterday

Maximum temperature yesterday: 74 °F (at 5:00 PM)
Minimum temperature yesterday: 49 °F (at 5:00 AM)
Average temperature yesterday: 61 °F

Past Weeks' High & Low Weather Summary

 TemperatureHumidityPressure
High79 °F (Sep 7, 5:00 PM)100% (Sep 6, 6:00 AM)30.18 "Hg (Sep 6, 6:00 AM)
Low48 °F (Sep 2, 5:00 AM)43% (Sep 2, 6:00 PM)29.84 "Hg (Sep 6, 5:00 PM)
Average61 °F80%30.02 "Hg
* Reported Sep 1 6:00 AM — Sep 16 6:00 AM, Solothurn, Weather by CustomWeather, © 2014

Note: Actual official high and low records may vary slightly from our data, if they occured in-between our weather recording intervals... More about our weather records

Advertising

Solothurn weather history for previous 24 hours

 ConditionsComfort  
Time TempWeatherWind HumidityBarometerVisibility
6:00 AM
Sep 16
50 °FCool.1 mph95%30.03 "HgN/A
5:00 AM53 °FCool.1 mph95%30.02 "HgN/A
4:00 AM53 °FCool.2 mph92%30.02 "HgN/A
3:00 AM56 °FCool.3 mph90%30.01 "HgN/A
2:00 AM57 °FCool.2 mph86%30.01 "HgN/A
1:00 AM60 °FCool.5 mph77%29.99 "HgN/A
12:00 AM62 °FCool.6 mph72%29.99 "HgN/A
11:00 PM
Sep 15
65 °FMild.6 mph71%29.98 "HgN/A
10:00 PM62 °FCool.2 mph88%29.98 "HgN/A
9:00 PM61 °FCool.1 mph89%29.97 "HgN/A
8:00 PM64 °FMild.2 mph82%29.95 "HgN/A
7:00 PM68 °FMild.3 mph72%29.92 "HgN/A
6:00 PM72 °FMild.3 mph60%29.90 "HgN/A
5:00 PM74 °FMild.1 mph55%29.90 "HgN/A
4:00 PM73 °FMild.2 mph55%29.91 "HgN/A
3:00 PM72 °FMild.2 mph59%29.93 "HgN/A
2:00 PM70 °FMild.5 mph62%29.96 "HgN/A
1:00 PM66 °FMild.3 mph70%29.98 "HgN/A
12:00 PM64 °FMild.2 mph75%30.01 "HgN/A
11:00 AM62 °FCool.3 mph83%30.02 "HgN/A
10:00 AM59 °FCool.5 mph90%30.03 "HgN/A
9:00 AM56 °FCool.2 mph98%30.03 "HgN/A
8:00 AM54 °FCool.1 mph100%30.03 "HgN/A
7:00 AM52 °FCool.2 mph100%30.03 "HgN/A
Weather by CustomWeather, © 2014

See weather overviewHow to use our weather pages